Location: Arbon
(43.0005°N, 0.7472°E)
Time: 07:23:56
(UTC+00:00)

Vanguard 1 - Pass Details

Date: 26 November 2020
Orbit: 648 x 3834 km, 34.3° (Epoch: 21 January)

Event Time Altitude Azimuth Distance (km) Brightness Sun altitude
Rises 09:51:41 0° 272° (W) 4,898 13.4 20.9°
Reaches altitude 10° 09:54:29 10° 266° (W) 4,243 13.1 21.1°
Maximum altitude 10:06:10 48° 197° (SSW) 3,306 13.6 22.1°
Drops below altitude 10° 10:25:32 10° 132° (SE) 6,745 15.5 23.4°
Sets 10:31:30 0° 128° (SE) 7,931 15.6 23.8°
